Погода в Амнатчарене

Таиланд     15°48′34″N   104°27′30″E
темп.,
°C
ветер,
м/с
пор.,
м/с
влажн.,
%
обл.,
%
осадки,
мм/ч
давл.,
гПа
погр.,
м
15 мая, сб
сб1501:00+28ююз23716 0.4 1006104
04:00+28юз11726 0.0 100611
07:00+29ююв22685 0.6 1008222
10:00+33ю335124 0.4 10081190
13:00+36ю224299 0.6 10052319
16:00+36юз224037 0.2 10031785
19:00+33ю234916 0.2 100464
22:00+32ююв365727 0.0 1006213
16 мая, вс
вс1601:00+30ююз256110 0.0 1005132
04:00+29ююз366986 0.0 1005206
07:00+30ююв466784 0.1 1008488
10:00+34ю44505 0.0 10081375
13:00+38ююз323876 0.1 10052584
16:00+36зсз2242100 0.4 1003808
19:00+34з244979 0.4 100485
22:00+33зюз115011 0.0 100612
17 мая, пн
пн1701:00+31ююз335742 0.0 100568
04:00+30ююз2260100 0.0 100528
07:00+30ю246496 0.4 1007261
10:00+34ююв44508 0.1 10081187
13:00+37ю223858 0.1 10052566
16:00+37юв433752 0.3 10021826
19:00+35ююв3444100 0.3 1003117
22:00+34юз3548100 0.1 1006173
18 мая, вт
вт1801:00+30ссв3564100 0.9 1006236
04:00+29юв2270100 0.6 100559
07:00+28ююв567794 0.9 1008331
10:00+34ююв5550100 0.0 10081300
13:00+37ю433984 0.1 10052424
16:00+35юз224699 0.8 1004967
19:00+31з1161100 1.2 100539
22:00+28ююз367547 2.0 1007177
19 мая, ср
ср1901:00+28ююз2269100 2.1 100639
04:00+27юв248257 3.1 1006110
07:00+29ююв577034 4.1 1008340
10:00+33ю5555100 0.3 10081373
13:00+36ююз444393 0.5 10052219
16:00+33зсз355289 0.1 1004615
19:00+32ююв345492 0.1 100497
22:00+30ююз35625 0.0 1006127